Weather History for Altus, OK

Change the Weather History Date:

Monday, December 17, 2012

  Actual Average (KLTS) Record (KLTS)
Temperature  
Mean Temperature 44 °F -  
Max Temperature 55 °F 49 °F 77 °F (2002)
Min Temperature 32 °F 26 °F 15 °F (2003)
Degree Days  
Heating Degree Days 22    
Moisture  
Dew Point 33 °F    
Average Humidity 76    
Maximum Humidity 100    
Minimum Humidity 41    
Precipitation  
Precipitation 0.00 in - - ()
Sea Level Pressure  
Sea Level Pressure 29.86 in    
Wind  
Wind Speed 6 mph (West)    
Max Wind Speed 13 mph    
Max Gust Speed 16 mph    
Visibility 7 miles    
Events      
Averages and records for this station are not official NWS values.
T = Trace of Precipitation, MM = Missing Value Source: NWS Daily Summary

Daily Weather History Graph

Daily Weather History Graph

Search for Another Location

Airport:

Trip Planner

Search our weather history database for the weather conditions in past years. The results will help you decide how hot, cold, wet, or windy it might be!

Date:

Astronomy

Dec. 17, 2012 Rise Set
Actual Time 7:38 AM CST 5:28 PM CST
Civil Twilight 7:10 AM CST 5:56 PM CST
Nautical Twilight 6:39 AM CST 6:28 PM CST
Astronomical Twilight 6:08 AM CST 6:59 PM CST
Moon 10:58 AM CST (12/17) 10:40 PM CST (12/17)
Length of Visible Light 10h 46m
Length of Day
9h 50m
Waxing Crescent, 25% of the Moon is Illuminated
Dec 17
Waxing Crescent
Dec 19
First Quarter
Dec 28
Full
Jan 4
Last Quarter
Jan 11
New

Hourly Weather History & Observations

Time (CST) Temp. Windchill Dew Point Humidity Pressure Visibility Wind Dir Wind Speed Gust Speed Precip Events Conditions
12:15 AM 37.4 °F 34.9 °F 33.8 °F 87% 29.84 in 5.0 mi WNW 3.5 mph - N/A   Clear
12:55 AM 35.6 °F 31.7 °F 32.0 °F 87% 29.84 in 3.0 mi NNW 4.6 mph - N/A   Clear
1:15 AM 35.6 °F 30.7 °F 33.8 °F 93% 29.85 in 4.0 mi NNW 5.8 mph - N/A   Scattered Clouds
1:35 AM 35.6 °F 30.7 °F 33.8 °F 93% 29.86 in 4.0 mi NNW 5.8 mph - N/A   Mostly Cloudy
1:55 AM 37.4 °F 32.8 °F 35.6 °F 93% 29.87 in 4.0 mi NW 5.8 mph - N/A   Overcast
2:15 AM 37.4 °F 32.1 °F 35.6 °F 93% 29.87 in 5.0 mi NNW 6.9 mph - N/A   Overcast
2:35 AM 35.6 °F 30.7 °F 33.8 °F 93% 29.87 in 4.0 mi NNW 5.8 mph - N/A   Scattered Clouds
2:55 AM 33.8 °F 27.0 °F 32.0 °F 93% 29.87 in 4.0 mi North 8.1 mph - N/A   Clear
3:15 AM 33.8 °F 27.7 °F 32.0 °F 93% 29.88 in 3.0 mi North 6.9 mph - N/A   Clear
3:35 AM 33.8 °F 27.0 °F 32.0 °F 93% 29.88 in 3.0 mi North 8.1 mph - N/A   Clear
3:55 AM 33.8 °F 28.6 °F 32.0 °F 93% 29.89 in 3.0 mi NNW 5.8 mph - N/A   Clear
4:15 AM 32.0 °F 25.6 °F 32.0 °F 100% 29.89 in 3.0 mi North 6.9 mph - N/A   Clear
4:35 AM 33.8 °F 25.8 °F 32.0 °F 93% 29.89 in 4.0 mi North 10.4 mph - N/A   Clear
4:55 AM 32.0 °F 24.2 °F 32.0 °F 100% 29.89 in 3.0 mi North 9.2 mph - N/A   Clear
5:15 AM 32.0 °F 25.6 °F 32.0 °F 100% 29.89 in 3.0 mi North 6.9 mph - N/A   Clear
5:35 AM 32.0 °F 25.6 °F 30.2 °F 93% 29.90 in 3.0 mi North 6.9 mph - N/A   Clear
6:15 AM 32.0 °F 26.4 °F 30.2 °F 93% 29.90 in 3.0 mi North 5.8 mph - N/A   Clear
6:35 AM 32.0 °F 24.8 °F 30.2 °F 93% 29.90 in 3.0 mi NNW 8.1 mph - N/A   Clear
6:55 AM 32.0 °F 26.4 °F 30.2 °F 93% 29.91 in 2.5 mi NNW 5.8 mph - N/A   Clear
7:15 AM 32.0 °F 27.5 °F 30.2 °F 93% 29.92 in 2.5 mi West 4.6 mph - N/A   Clear
7:55 AM 32.0 °F 24.8 °F 30.2 °F 93% 29.94 in 2.5 mi West 8.1 mph - N/A   Clear
8:15 AM 32.0 °F 26.4 °F 30.2 °F 93% 29.93 in 2.5 mi WNW 5.8 mph - N/A   Clear
8:35 AM 32.0 °F 26.4 °F 32.0 °F 100% 29.94 in 2.5 mi West 5.8 mph - N/A   Clear
8:55 AM 33.8 °F 28.6 °F 32.0 °F 93% 29.93 in 2.5 mi WNW 5.8 mph - N/A   Clear
9:15 AM 33.8 °F 28.6 °F 32.0 °F 93% 29.93 in 3.0 mi West 5.8 mph - N/A   Clear
9:35 AM 35.6 °F 31.7 °F 32.0 °F 87% 29.94 in 4.0 mi West 4.6 mph - N/A   Clear
9:55 AM 37.4 °F 34.9 °F 33.8 °F 87% 29.93 in 5.0 mi WNW 3.5 mph - N/A   Clear
10:15 AM 39.2 °F 37.0 °F 33.8 °F 81% 29.93 in 7.0 mi WNW 3.5 mph - N/A   Clear
10:35 AM 41.0 °F 39.0 °F 35.6 °F 81% 29.93 in 7.0 mi NW 3.5 mph - N/A   Clear
10:55 AM 42.8 °F 40.1 °F 35.6 °F 76% 29.93 in 7.0 mi West 4.6 mph - N/A   Clear
11:15 AM 44.6 °F 43.1 °F 35.6 °F 71% 29.93 in 10.0 mi West 3.5 mph - N/A   Clear
11:35 AM 44.6 °F 41.4 °F 37.4 °F 76% 29.92 in 10.0 mi WSW 5.8 mph - N/A   Clear
11:55 AM 46.4 °F 43.5 °F 37.4 °F 71% 29.91 in 10.0 mi West 5.8 mph - N/A   Clear
12:15 PM 50.0 °F - 37.4 °F 62% 29.90 in 10.0 mi SW 5.8 mph - N/A   Clear
12:35 PM 50.0 °F - 37.4 °F 62% 29.87 in 10.0 mi SW 6.9 mph - N/A   Clear
12:55 PM 51.8 °F - 35.6 °F 54% 29.87 in 10.0 mi SW 8.1 mph - N/A   Clear
1:15 PM 51.8 °F - 35.6 °F 54% 29.85 in 10.0 mi SW 8.1 mph - N/A   Clear
1:35 PM 51.8 °F - 35.6 °F 54% 29.84 in 10.0 mi SW 9.2 mph - N/A   Clear
1:55 PM 51.8 °F - 35.6 °F 54% 29.83 in 10.0 mi SSW 8.1 mph - N/A   Clear
2:15 PM 53.6 °F - 35.6 °F 51% 29.83 in 10.0 mi WSW 5.8 mph - N/A   Clear
2:35 PM 53.6 °F - 35.6 °F 51% 29.82 in 10.0 mi SSW 8.1 mph - N/A   Clear
2:55 PM 55.4 °F - 33.8 °F 44% 29.82 in 10.0 mi SSW 9.2 mph - N/A   Clear
3:15 PM 55.4 °F - 32.0 °F 41% 29.82 in 10.0 mi SW 10.4 mph - N/A   Clear
3:35 PM 55.4 °F - 32.0 °F 41% 29.82 in 10.0 mi SW 12.7 mph - N/A   Clear
3:55 PM 55.4 °F - 32.0 °F 41% 29.82 in 10.0 mi SW 11.5 mph 16.1 mph N/A   Clear
6:35 PM 44.6 °F 40.2 °F 32.0 °F 61% 29.80 in 10.0 mi SSE 8.1 mph - N/A   Clear
6:55 PM 44.6 °F 40.2 °F 32.0 °F 61% 29.80 in 10.0 mi South 8.1 mph - N/A   Clear
7:15 PM 42.8 °F 38.6 °F 32.0 °F 66% 29.80 in 10.0 mi SSE 6.9 mph - N/A   Clear
7:35 PM 42.8 °F 37.5 °F 32.0 °F 66% 29.80 in 10.0 mi SSE 9.2 mph - N/A   Clear
7:55 PM 42.8 °F 38.0 °F 32.0 °F 66% 29.79 in 10.0 mi SE 8.1 mph - N/A   Clear
8:15 PM 41.0 °F 35.8 °F 32.0 °F 70% 29.79 in 10.0 mi SSE 8.1 mph - N/A   Clear
8:35 PM 41.0 °F 36.4 °F 32.0 °F 70% 29.80 in 10.0 mi SE 6.9 mph - N/A   Clear
8:55 PM 39.2 °F 33.6 °F 30.2 °F 70% 29.80 in 10.0 mi South 8.1 mph - N/A   Clear
9:15 PM 41.0 °F 37.1 °F 30.2 °F 65% 29.80 in 10.0 mi SSE 5.8 mph - N/A   Clear
9:35 PM 42.8 °F 40.1 °F 28.4 °F 57% 29.79 in 10.0 mi SE 4.6 mph - N/A   Clear
9:55 PM 42.8 °F 38.0 °F 28.4 °F 57% 29.79 in 10.0 mi SE 8.1 mph - N/A   Clear
10:15 PM 41.0 °F 36.4 °F 28.4 °F 61% 29.79 in 10.0 mi ESE 6.9 mph - N/A   Clear
10:35 PM 41.0 °F 35.8 °F 28.4 °F 61% 29.79 in 10.0 mi SE 8.1 mph - N/A   Clear
10:55 PM 37.4 °F 32.1 °F 30.2 °F 75% 29.79 in 10.0 mi ESE 6.9 mph - N/A   Clear
11:15 PM 37.4 °F 31.4 °F 30.2 °F 75% 29.79 in 10.0 mi ESE 8.1 mph - N/A   Clear
11:35 PM 35.6 °F 29.9 °F 28.4 °F 75% 29.79 in 10.0 mi ESE 6.9 mph - N/A   Clear
11:55 PM 37.4 °F 31.4 °F 28.4 °F 70% 29.79 in 10.0 mi SE 8.1 mph - N/A   Clear